TimeHST,TemperatureF,Dew PointF,Humidity,Sea Level PressureIn,VisibilityMPH,Wind Direction,Wind SpeedMPH,Gust SpeedMPH,PrecipitationIn,Events,Conditions,WindDirDegrees,DateUTC
12:57 AM,69.8,62.1,76,30.13,7.0,ENE,13.8,21.9,N/A,,Partly Cloudy,60,2013-02-25 10:57:00
1:57 AM,-9999,-9999,N/A,30.11,-9999.0,ENE,13.8,20.7,N/A,,Partly Cloudy,60,2013-02-25 11:57:00
2:57 AM,69.8,62.1,76,30.09,7.0,ENE,9.2,18.4,N/A,,Scattered Clouds,60,2013-02-25 12:57:00
3:57 AM,69.8,62.1,76,30.09,7.0,ENE,12.7,20.7,N/A,,Partly Cloudy,60,2013-02-25 13:57:00
4:57 AM,69.8,61.0,73,30.08,7.0,ENE,10.4,21.9,N/A,,Scattered Clouds,60,2013-02-25 14:57:00
5:57 AM,69.8,60.1,71,30.09,7.0,ENE,11.5,19.6,N/A,,Partly Cloudy,60,2013-02-25 15:57:00
6:57 AM,71.6,60.1,67,30.11,7.0,ENE,11.5,18.4,N/A,,Partly Cloudy,60,2013-02-25 16:57:00
7:57 AM,71.6,60.1,67,30.12,7.0,NE,13.8,-,N/A,,Mostly Cloudy,50,2013-02-25 17:57:00
8:57 AM,74.1,61.0,63,30.14,10.0,NE,10.4,17.3,N/A,,Mostly Cloudy,50,2013-02-25 18:57:00
9:57 AM,75.7,61.0,60,30.15,10.0,NE,13.8,20.7,0.00,,Partly Cloudy,50,2013-02-25 19:57:00
10:57 AM,76.8,61.0,58,30.15,10.0,NE,13.8,21.9,N/A,,Mostly Cloudy,50,2013-02-25 20:57:00
11:57 AM,77.4,63.0,61,30.14,10.0,NE,13.8,23.0,N/A,,Scattered Clouds,40,2013-02-25 21:57:00
12:57 PM,78.6,63.0,59,30.11,10.0,NE,12.7,20.7,N/A,,Scattered Clouds,50,2013-02-25 22:57:00
1:57 PM,78.6,63.0,59,30.09,10.0,ENE,11.5,20.7,N/A,,Clear,60,2013-02-25 23:57:00
2:57 PM,78.6,62.1,57,30.08,10.0,NE,12.7,-,N/A,,Mostly Cloudy,50,2013-02-26 00:57:00
3:57 PM,76.1,63.0,64,30.08,10.0,ENE,10.4,19.6,N/A,,Overcast,60,2013-02-26 01:57:00
4:57 PM,77.0,64.0,64,30.08,10.0,NE,11.5,20.7,N/A,,Scattered Clouds,50,2013-02-26 02:57:00
5:57 PM,74.5,64.9,72,30.10,10.0,NE,11.5,18.4,N/A,,Scattered Clouds,50,2013-02-26 03:57:00
6:46 PM,75.2,66.2,73,30.13,6.2,ENE,12.7,25.3,0.02,Rain,Heavy Rain,60,2013-02-26 04:46:00
6:57 PM,71.2,66.0,84,30.12,10.0,NE,8.1,21.9,0.04,Rain,Light Rain,50,2013-02-26 04:57:00
7:57 PM,71.6,66.9,85,30.14,6.0,NE,9.2,-,0.02,Rain,Heavy Rain,50,2013-02-26 05:57:00
8:43 PM,71.6,66.2,83,30.17,6.0,ENE,11.5,18.4,0.01,,Haze,70,2013-02-26 06:43:00
8:57 PM,71.6,66.9,85,30.16,10.0,ENE,10.4,23.0,0.01,,Mostly Cloudy,70,2013-02-26 06:57:00
9:57 PM,70.7,66.0,85,30.17,6.0,ENE,6.9,-,0.00,Rain,Light Rain,70,2013-02-26 07:57:00
10:57 PM,71.2,68.0,89,30.17,10.0,East,12.7,20.7,0.00,,Scattered Clouds,80,2013-02-26 08:57:00
11:57 PM,71.6,65.1,80,30.16,10.0,East,12.7,20.7,N/A,,Scattered Clouds,90,2013-02-26 09:57:00